Location: Lussas
(44.6119°N, 4.4726°E)
Time: 15:24:58
(UTC+00:00)

Lacrosse 5 - Pass Details

Date: 26 November 2020
Orbit: 713 x 726 km, 57.0° (Epoch: 23 January)

Event Time Altitude Azimuth Distance (km) Brightness Sun altitude
Exits shadow 03:43:47 12° 156° (SSE) 2,061 4.4 -33.2°
Maximum altitude 03:46:28 17° 121° (ESE) 1,745 4.4 -32.7°
Drops below altitude 10° 03:49:42 10° 80° (E) 2,191 5.2 -32.1°
Sets 03:52:48 0° 61° (ENE) 3,116 6.0 -31.6°
